• In Deutschland
  • Länderverzeichnis
  • Für 7 Tage
  • Wassertemperatur
  • Satellitenkarten
  • Wetterkarte
  • Widgets
  • user-avatar
    Anmelden

    Stündliche Wetter Nuoro

    Heute, 14 August, Dienstag

    Zeit Temperatur Niederschläge Wind Luftdruck Luftfeuchtigkeit
    00:00 +23°C° 0 mm 1 m/S 715 mmHg 53%
    01:00 +23°C° 0 mm 1 m/S 715 mmHg 51%
    02:00 +22°C° 0 mm 1 m/S 715 mmHg 51%
    03:00 +22°C° 0 mm 1 m/S 715 mmHg 50%
    04:00 +22°C° 0 mm 1 m/S 715 mmHg 49%
    05:00 +22°C° 0 mm 1 m/S 715 mmHg 48%
    06:00 +23°C° 0 mm 1 m/S 715 mmHg 48%
    07:00 +25°C° 0 mm 2 m/S 715 mmHg 49%
    08:00 +27°C° 0,1 mm 2 m/S 716 mmHg 45%
    09:00 +29°C° 0,1 mm 2 m/S 716 mmHg 42%
    10:00 +30°C° 0,1 mm 2 m/S 716 mmHg 39%
    11:00 +31°C° 0,1 mm 3 m/S 716 mmHg 39%
    12:00 +33°C° 0,1 mm 3 m/S 716 mmHg 39%
    13:00 +31°C° 0 mm 3 m/S 716 mmHg 43%
    14:00 +30°C° 0,8 mm 3 m/S 716 mmHg 46%
    15:00 +29°C° 0,8 mm 4 m/S 716 mmHg 49%
    16:00 +29°C° 0,8 mm 4 m/S 716 mmHg 52%
    17:00 +27°C° 2,1 mm 3 m/S 716 mmHg 57%
    18:00 +26°C° 2,1 mm 3 m/S 715 mmHg 62%
    19:00 +25°C° 2,1 mm 3 m/S 715 mmHg 67%
    20:00 +24°C° 0,5 mm 2 m/S 715 mmHg 71%
    21:00 +23°C° 0,5 mm 2 m/S 715 mmHg 75%
    22:00 +21°C° 0,5 mm 2 m/S 715 mmHg 79%
    23:00 +20°C° 0 mm 2 m/S 715 mmHg 81%

    Morgen, 15 August, Mittwoch

    Zeit Temperatur Niederschläge Wind Luftdruck Luftfeuchtigkeit
    00:00 +20°C° 0 mm 3 m/S 715 mmHg 83%
    01:00 +19°C° 0 mm 3 m/S 715 mmHg 84%
    02:00 +19°C° 0 mm 3 m/S 715 mmHg 85%
    03:00 +19°C° 0 mm 2 m/S 715 mmHg 86%
    04:00 +19°C° 0 mm 2 m/S 714 mmHg 86%
    05:00 +19°C° 0 mm 2 m/S 714 mmHg 83%
    06:00 +20°C° 0 mm 2 m/S 715 mmHg 80%
    07:00 +21°C° 0 mm 2 m/S 715 mmHg 77%
    08:00 +24°C° 0 mm 2 m/S 715 mmHg 68%
    09:00 +26°C° 0 mm 2 m/S 715 mmHg 58%
    10:00 +29°C° 0 mm 2 m/S 716 mmHg 48%
    11:00 +29°C° 0 mm 2 m/S 716 mmHg 47%
    12:00 +29°C° 0 mm 2 m/S 716 mmHg 45%
    13:00 +29°C° 0 mm 3 m/S 716 mmHg 44%
    14:00 +29°C° 0,1 mm 3 m/S 716 mmHg 45%
    15:00 +29°C° 0,1 mm 3 m/S 716 mmHg 47%
    16:00 +29°C° 0,1 mm 3 m/S 716 mmHg 48%
    17:00 +28°C° 0 mm 3 m/S 716 mmHg 51%
    18:00 +27°C° 0 mm 2 m/S 716 mmHg 55%
    19:00 +26°C° 0 mm 2 m/S 716 mmHg 58%
    20:00 +25°C° 0 mm 2 m/S 716 mmHg 63%
    21:00 +23°C° 0 mm 2 m/S 716 mmHg 67%
    22:00 +22°C° 0 mm 1 m/S 716 mmHg 72%
    23:00 +22°C° 0 mm 1 m/S 716 mmHg 72%

    übermorgen, 16 August, Donnerstag

    Zeit Temperatur Niederschläge Wind Luftdruck Luftfeuchtigkeit
    00:00 +21°C° 0 mm 2 m/S 716 mmHg 73%
    01:00 +20°C° 0 mm 2 m/S 716 mmHg 73%
    02:00 +20°C° 0 mm 2 m/S 716 mmHg 73%
    03:00 +20°C° 0 mm 2 m/S 716 mmHg 73%
    04:00 +20°C° 0 mm 2 m/S 715 mmHg 73%
    05:00 +21°C° 0 mm 2 m/S 716 mmHg 70%
    06:00 +21°C° 0 mm 2 m/S 716 mmHg 68%
    07:00 +23°C° 0 mm 2 m/S 716 mmHg 66%
    08:00 +25°C° 0 mm 2 m/S 716 mmHg 58%
    09:00 +27°C° 0 mm 3 m/S 717 mmHg 50%
    10:00 +29°C° 0 mm 3 m/S 717 mmHg 42%
    11:00 +30°C° 0 mm 3 m/S 717 mmHg 40%
    12:00 +31°C° 0 mm 3 m/S 717 mmHg 38%
    13:00 +33°C° 0 mm 3 m/S 717 mmHg 37%
    14:00 +31°C° 0,2 mm 3 m/S 717 mmHg 39%
    15:00 +30°C° 0,2 mm 3 m/S 717 mmHg 42%
    16:00 +30°C° 0,2 mm 3 m/S 716 mmHg 45%
    17:00 +29°C° 0,2 mm 2 m/S 716 mmHg 50%
    18:00 +27°C° 0,2 mm 2 m/S 716 mmHg 55%
    19:00 +26°C° 0,2 mm 1 m/S 716 mmHg 60%
    20:00 +25°C° 0 mm 1 m/S 716 mmHg 65%
    21:00 +24°C° 0 mm 1 m/S 716 mmHg 71%
    22:00 +22°C° 0 mm 1 m/S 716 mmHg 76%
    23:00 +22°C° 0 mm 1 m/S 716 mmHg 76%

    17 August, Freitag

    Zeit Temperatur Niederschläge Wind Luftdruck Luftfeuchtigkeit
    00:00 +22°C° 0 mm 1 m/S 716 mmHg 76%
    01:00 +22°C° 0 mm 1 m/S 716 mmHg 76%
    02:00 +22°C° 0 mm 1 m/S 716 mmHg 75%
    03:00 +21°C° 0 mm 1 m/S 716 mmHg 74%
    04:00 +21°C° 0 mm 1 m/S 716 mmHg 73%
    05:00 +22°C° 0 mm 1 m/S 716 mmHg 70%
    06:00 +23°C° 0 mm 1 m/S 716 mmHg 67%
    07:00 +23°C° 0 mm 1 m/S 716 mmHg 64%
    08:00 +26°C° 0 mm 1 m/S 717 mmHg 56%
    09:00 +28°C° 0 mm 1 m/S 717 mmHg 49%
    10:00 +30°C° 0 mm 1 m/S 718 mmHg 41%
    11:00 +31°C° 0 mm 1 m/S 718 mmHg 40%
    12:00 +31°C° 0 mm 2 m/S 718 mmHg 38%
    13:00 +31°C° 0 mm 2 m/S 718 mmHg 37%
    14:00 +30°C° 0,1 mm 2 m/S 718 mmHg 41%
    15:00 +29°C° 0,1 mm 2 m/S 717 mmHg 45%
    16:00 +28°C° 0,1 mm 2 m/S 717 mmHg 49%
    17:00 +27°C° 0,3 mm 2 m/S 717 mmHg 55%
    18:00 +26°C° 0,3 mm 2 m/S 717 mmHg 60%
    19:00 +25°C° 0,3 mm 1 m/S 717 mmHg 65%
    20:00 +24°C° 0,7 mm 1 m/S 717 mmHg 70%
    21:00 +23°C° 0,7 mm 1 m/S 717 mmHg 74%
    22:00 +22°C° 0,7 mm 1 m/S 717 mmHg 79%
    23:00 +22°C° 0,2 mm 1 m/S 717 mmHg 80%

    18 August, Samstag

    Zeit Temperatur Niederschläge Wind Luftdruck Luftfeuchtigkeit
    00:00 +22°C° 0,2 mm 1 m/S 717 mmHg 81%
    01:00 +21°C° 0,2 mm 1 m/S 717 mmHg 82%
    02:00 +21°C° 0 mm 1 m/S 717 mmHg 83%
    03:00 +21°C° 0 mm 1 m/S 717 mmHg 83%
    04:00 +20°C° 0 mm 1 m/S 716 mmHg 83%
    05:00 +21°C° 0 mm 1 m/S 717 mmHg 80%
    06:00 +22°C° 0 mm 1 m/S 717 mmHg 76%
    07:00 +23°C° 0 mm 1 m/S 717 mmHg 72%
    08:00 +25°C° 0 mm 1 m/S 718 mmHg 63%
    09:00 +28°C° 0 mm 1 m/S 718 mmHg 53%
    10:00 +30°C° 0 mm 1 m/S 719 mmHg 43%
    11:00 +31°C° 0,1 mm 2 m/S 719 mmHg 42%
    12:00 +31°C° 0,1 mm 2 m/S 719 mmHg 41%
    13:00 +31°C° 0,1 mm 3 m/S 719 mmHg 40%
    14:00 +30°C° 0,1 mm 3 m/S 719 mmHg 43%
    15:00 +29°C° 0,1 mm 3 m/S 719 mmHg 47%
    16:00 +28°C° 0,1 mm 3 m/S 718 mmHg 51%
    17:00 +27°C° 0,7 mm 2 m/S 718 mmHg 55%
    18:00 +26°C° 0,7 mm 2 m/S 718 mmHg 60%
    19:00 +25°C° 0,7 mm 2 m/S 718 mmHg 65%
    20:00 +24°C° 0,2 mm 1 m/S 718 mmHg 70%
    21:00 +23°C° 0,2 mm 1 m/S 718 mmHg 75%
    22:00 +22°C° 0,2 mm 1 m/S 718 mmHg 79%
    23:00 +21°C° 0,2 mm 1 m/S 718 mmHg 81%

    19 August, Sonntag

    Zeit Temperatur Niederschläge Wind Luftdruck Luftfeuchtigkeit
    00:00 +21°C° 0,2 mm 1 m/S 718 mmHg 82%
    01:00 +20°C° 0,2 mm 1 m/S 718 mmHg 83%
    02:00 +20°C° 0,1 mm 1 m/S 718 mmHg 83%
    03:00 +20°C° 0,1 mm 1 m/S 717 mmHg 83%
    04:00 +20°C° 0,1 mm 1 m/S 717 mmHg 83%
    05:00 +20°C° 0,6 mm 1 m/S 717 mmHg 80%
    06:00 +21°C° 0,6 mm 1 m/S 718 mmHg 76%
    07:00 +22°C° 0,6 mm 1 m/S 718 mmHg 72%
    08:00 +24°C° 0,7 mm 1 m/S 718 mmHg 62%
    09:00 +27°C° 0,7 mm 1 m/S 719 mmHg 51%
    10:00 +29°C° 0,7 mm 1 m/S 719 mmHg 41%
    11:00 +30°C° 0,2 mm 1 m/S 719 mmHg 39%
    12:00 +31°C° 0,2 mm 2 m/S 719 mmHg 36%
    13:00 +31°C° 0,2 mm 2 m/S 719 mmHg 34%
    14:00 +30°C° 0,1 mm 2 m/S 718 mmHg 38%
    15:00 +30°C° 0,1 mm 2 m/S 718 mmHg 41%
    16:00 +29°C° 0,1 mm 2 m/S 718 mmHg 44%
    17:00 +28°C° 0,2 mm 2 m/S 718 mmHg 50%
    18:00 +26°C° 0,2 mm 2 m/S 717 mmHg 55%
    19:00 +25°C° 0,2 mm 1 m/S 717 mmHg 61%
    20:00 +24°C° 0,1 mm 1 m/S 717 mmHg 65%
    21:00 +23°C° 0,1 mm 1 m/S 717 mmHg 68%
    22:00 +22°C° 0,1 mm 1 m/S 717 mmHg 72%
    23:00 +22°C° 0 mm 1 m/S 717 mmHg 73%
    Mehr zeigen